Regional Weather Roundup
Issued by NWS Charleston, SC

Current Version | Previous Version | Text Only | Print | Product List | Glossary Off
Versions: 1 2 3 4 5 6 7 8 9 10 11 12 13 14 15 16 17 18 19 20 21 22 23 24 25 26 27 28 29 30 31 32 33 34 35 36 37 38 39 40 41 42 43 44 45 46 47 48 49 50

000
ASUS42 KCHS 210425
RWRCHS

REGIONAL WEATHER ROUNDUP
NATIONAL WEATHER SERVICE CHARLESTON SC
1100 PM EST SAT DEC 20 2014

NOTE: "FAIR" INDICATES FEW OR NO CLOUDS BELOW 12,000 FEET WITH NO
SIGNIFICANT WEATHER AND/OR OBSTRUCTIONS TO VISIBILITY.

NOT ALL STATIONS ARE QUALITY CONTROLLED BY THE NATIONAL
WEATHER SERVICE. USE DATA WITH CAUTION...ESPECIALLY
DEWPOINT OBSERVATIONS.

SCZ027-030-031-034>040-042>050-210500-
...SOUTHEAST SOUTH CAROLINA...

CITY           SKY/WX    TMP DP  RH WIND       PRES   REMARKS
N CHARLESTON   CLOUDY    48  46  93 N10       30.23R
WATERFRONT PRK   N/A     50 N/A N/A N14         N/A
MOUNT PLEASANT CLOUDY    48  46  93 N6        30.22S
PINOPOLIS        N/A     48  45  87 NE10      30.16F
MONCKS CORNER  CLOUDY    46  43  87 N3        30.24R
SUMMERVILLE    CLOUDY    46  46 100 N6        30.25R
BEAUFORT MCAS  CLOUDY    51  49  92 NE9       30.22R
BEAUFORT ARPT  CLOUDY    50  50 100 N10       30.21S
HILTON HEAD IS DRIZZLE   52  50  93 N10       30.21F
WALTERBORO     CLOUDY    48 N/A N/A NE3       30.23F FOG
ALLENDALE      CLOUDY    48  46  93 VRB5      30.22S FOG

...SOUTHERN MIDLANDS AND PEE DEE...

CITY           SKY/WX    TMP DP  RH WIND       PRES   REMARKS
GEORGETOWN     NOT AVBL
KINGSTREE      NOT AVBL
ORANGEBURG     CLOUDY    46  42  86 NE5       30.25S
BARNWELL       CLOUDY    46  45  93 NE5       30.24S
AIKEN          CLOUDY    45  45 100 E5        30.26S
MANNING        NOT AVBL
COLUMBIA       CLOUDY    46  39  76 E7        30.24F
SUMTER         CLOUDY    44  39  83 E3        30.24
FLORENCE       CLEAR     39  37  92 E3        30.27R FOG
MYRTLE BEACH   CLOUDY    45  39  81 N9        30.26F
N MYRTLE BEACH CLOUDY    42  39  89 N7        30.25S

$$

GAZ063-065-086>088-099>101-113>116-118-119-134>141-150-210500-
...SOUTHEAST GEORGIA...

CITY           SKY/WX    TMP DP  RH WIND       PRES   REMARKS
SAVANNAH ARPT  LGT RAIN  53  50  89 N8        30.20F
HUNTER AAF     CLOUDY    54  54 100 N7        30.17F
FORT STEWART   CLOUDY    54  52  94 NE9       30.16F
STATESBORO     CLOUDY    50  50 100 NE5       30.21S FOG
SYLVANIA       CLOUDY    49  49 100 E6        30.22S FOG
CLAXTON        CLOUDY    52  52 100 NE6       30.19F

...CSRA...CENTRAL AND FAR SOUTHEAST GEORGIA...

CITY           SKY/WX    TMP DP  RH WIND       PRES   REMARKS
THOMSON        CLOUDY    49  49 100 NE5       30.27S VSB 1
AUGUSTA-BUSH   CLOUDY    48  45  89 E8        30.24R
AUGUSTA-DANIEL CLOUDY    48  47  96 NE6       30.24R FOG
SWAINSBORO     CLOUDY   N/A N/A N/A NE3       30.21S
VIDALIA        CLOUDY    52  52 100 E6        30.20S
EASTMAN        DRIZZLE   53  53 100 E6        30.20F
HAZLEHURST     LGT RAIN  54  54 100 CALM      30.18S
ALMA           CLOUDY    54  51  90 NE5       30.17S
WAYCROSS       CLOUDY    57  55  94 E7        30.17S
JESUP          CLOUDY    55  54  94 NE6       30.18R
BAXLEY         CLOUDY    54  52  94 NE6       30.18R
BRUNSWICK      CLOUDY    55  52  88 NE9       30.18R
SAINT SIMONS   CLOUDY    56  53  90 NE14G23   30.16S

$$

SCZ027-028-034-036>038-045-046-048>050-GAZ119-141-210500-
...LAKE AND SUPPLEMENTAL COASTAL OBSERVATIONS...

STATION/POSITION TIME  TEMP    WIND        PRES    WAVE   SWELL
                       AIR SEA DIR/SP/G            HT/PER HT/PER/DIR
                 (UTC) (F)     (DEG/KT/KT) (MB)    (FT/S) (FT/S/D)
UPR LAKE MARION  NOT AVBL
WINYAH BAY       0400   45     350/  5     1023.0S
LAKE MURRAY      0300   46      80/  6/  9 1023.7R
ACE BASIN NERRS  0400   50      20/  3     1023.0S
FORT PULASKI     0400   53 56   20/  8/ 11 1022.8F
SAPELO ISLAND    0400   54      30/ 13     1021.0S

$$

ANZ835-935-AMZ111-154-330-350-352-354-370-450-454-472-210500-
...C-MAN AND BUOY OBSERVATIONS...

STATION/POSITION TIME  TEMP    WIND        PRES    WAVE   SWELL
                       AIR SEA DIR/SP/G            HT/PER HT/PER/DIR
                 (UTC) (F)     (DEG/KT/KT) (MB)    (FT/S) (FT/S/D)
BUOY 41004       0400   62 68   30/ 19/ 21 1021.2R   5/ 5   2/10
BUOY 41008       0400   57 59   30/ 21/ 23 1020.7F   5/ 5
FOLLY BEACH CMAN 0400   49      20/ 13/ 15 1023.4R
CAPERS NEARSHORE 0300   51      50/ 17/ 21   N/A
FRIPP NEARSHORE  NOT AVBL


STATION/POSITION TIME  TEMP    WIND        PRES    WAVE   SWELL
                       AIR SEA DIR/SP/G            HT/PER HT/PER/DIR
                 (UTC) (F)     (DEG/KT/KT) (MB)    (FT/S) (FT/S/D)
5E ST. MARYS GA  0400      62                N/A     4/ 5
FRYING PAN BUOY  0400   57 65   40/ 16/ 17 1023.2F   5/ 6   2/ 50/ 8
BUOY 41025       0400   48                 1024.6F   3/ 4
CAPE LOOKOUT NC  0400   44      10/ 12/ 15 1024.3F
BUOY 41002       0321   65 71   90/ 19/ 25 1020.5R   5/ 5   2/ 80/11
BUOY 41010       0400   73 76  150/  4/  6 1019.7F   2/10   2/110/10
ST AUGUSTINE FL  0400   62     360/ 13/ 14 1020.6R


$$


USA.gov is the U.S. government's official web portal to all federal, state and local government web resources and services.